Wind_Speed
40 40 39 37 36 37 36 34 31 28 27 24 23 23 23 21 20 20 22 24 26 27 28 29 29 28 27 26 24 23 22 21 20 19 18 17 16 14 13 12 10 9 7 6 5 4 4 3 3 3 4 4 4 5 5 5 6 6 6 6 8 9 9
43 43 42 40 38 39 37 35 32 30 27 25 25 24 23 22 20 19 21 23 25 27 28 29 28 28 27 25 23 22 22 21 20 20 19 18 16 15 14 13 12 10 9 7 6 5 5 4 4 4 4 5 5 5 5 5 6 6 5 5 6 7 7
46 46 45 42 40 41 39 36 33 31 29 27 26 25 23 22 21 20 20 22 24 26 28 29 29 28 28 27 25 23 22 22 21 20 19 18 17 16 15 14 13 12 11 9 9 8 8 6 6 6 6 6 6 6 6 6 6 6 6 5 5 5 6
48 49 47 43 41 41 39 37 35 33 31 29 28 26 24 23 22 21 21 22 24 25 26 28 29 30 30 29 27 25 24 23 22 21 20 19 18 17 17 16 15 14 12 12 11 11 11 10 9 9 8 7 7 7 7 7 7 6 6 6 5 5 5
50 50 49 45 43 42 40 39 37 35 33 31 30 29 26 25 24 23 22 23 24 24 24 25 26 28 30 30 29 28 26 25 24 23 22 21 21 20 19 18 17 16 15 14 14 13 13 13 12 12 11 10 9 10 9 9 9 8 8 7 7 6 6
52 52 52 48 45 42 41 40 39 37 35 34 32 30 27 27 25 23 22 22 23 23 23 24 25 26 28 29 29 29 28 28 27 27 26 25 24 23 21 20 19 18 17 17 16 16 15 15 15 15 14 13 12 12 12 12 11 10 9 9 8 8 8
55 53 53 50 46 44 43 41 40 39 37 35 32 30 29 28 25 23 22 22 22 23 21 19 21 23 25 26 27 28 28 29 29 29 28 28 26 25 24 23 22 21 21 20 19 18 18 18 18 17 17 16 15 15 15 15 14 13 12 11 10 10 9
57 55 55 52 47 46 45 43 42 40 38 36 33 31 30 28 26 24 23 22 22 24 21 16 15 17 21 23 24 26 27 29 30 30 30 30 29 28 27 26 25 24 24 23 22 21 21 21 20 20 19 19 18 18 17 17 17 16 15 13 13 12 12
59 57 57 53 49 48 47 45 43 41 38 36 34 33 30 28 27 26 24 23 24 25 24 20 14 13 16 19 21 23 25 28 29 30 30 30 30 30 29 28 27 27 26 25 25 24 23 23 23 22 21 21 20 20 19 19 19 18 17 16 15 15 14
59 58 57 54 51 49 48 45 43 41 39 38 36 35 33 31 29 27 26 26 24 23 24 23 19 15 15 16 17 20 23 26 28 29 29 29 29 29 29 29 28 28 27 26 26 25 25 25 25 24 23 22 21 21 21 21 21 20 19 18 17 17 16
58 57 57 55 53 51 48 46 44 42 41 40 39 37 35 33 30 28 27 25 24 22 22 22 21 17 15 14 16 18 21 24 26 28 28 26 26 27 27 28 28 28 27 26 26 26 26 26 25 24 23 22 22 22 22 22 22 22 21 20 19 19 19
59 56 56 57 56 52 50 48 47 45 43 41 40 38 36 34 31 29 27 25 23 22 22 22 22 20 17 15 16 17 18 21 24 26 26 24 23 24 25 26 26 27 26 26 26 26 26 26 25 24 23 23 23 23 23 23 24 23 22 21 20 20 20
62 59 58 59 58 55 53 51 49 47 45 42 40 39 37 35 32 31 29 27 25 24 23 23 22 21 20 18 17 17 17 19 22 24 25 24 22 22 23 24 25 26 26 25 25 26 26 26 25 24 23 23 23 23 24 25 24 24 23 22 22 22 22
63 61 59 60 59 56 54 53 50 48 45 42 40 39 37 35 34 32 30 28 26 25 24 24 23 22 22 21 20 18 18 19 20 21 23 23 22 22 22 23 24 25 25 25 25 25 26 26 25 24 24 24 24 24 25 26 25 25 24 23 23 24 24
65 65 63 62 60 57 56 54 50 47 44 42 40 39 38 36 35 33 31 29 28 26 25 24 24 24 23 23 23 21 20 20 20 22 22 23 23 22 22 22 23 24 25 26 26 25 25 26 26 25 25 25 25 26 26 27 27 26 25 25 25 25 26
68 68 68 65 61 59 59 56 51 46 45 44 42 41 39 37 36 33 30 28 27 25 24 24 25 25 25 25 25 24 23 23 23 23 23 23 23 23 22 22 22 23 25 26 26 26 26 26 27 27 27 26 27 27 28 28 29 28 27 26 26 27 28
73 72 71 68 64 63 60 56 51 47 45 48 47 45 43 41 39 36 32 29 28 25 24 26 26 27 27 27 27 28 27 27 26 26 25 25 25 24 23 23 22 22 24 25 26 26 26 26 27 28 28 28 29 29 30 30 30 30 29 28 28 28 29
78 75 73 70 67 65 61 57 54 48 45 51 52 47 44 43 41 38 35 34 35 33 30 30 31 31 30 30 30 31 31 30 29 29 28 28 27 26 25 24 23 23 23 24 25 26 26 26 27 27 28 29 30 31 31 31 31 32 31 30 30 31 30
81 77 75 74 71 67 65 62 59 51 45 50 54 49 45 43 41 40 37 36 40 41 38 37 37 36 34 34 34 34 33 33 32 32 32 30 29 29 27 26 26 25 24 24 24 24 26 26 26 26 27 28 30 31 32 32 32 32 32 32 32 33 33
84 80 77 77 75 73 70 69 67 61 53 53 56 54 50 46 44 43 40 38 42 45 42 40 40 38 36 38 39 38 35 34 34 34 34 33 32 31 30 29 28 27 27 25 24 24 25 26 26 25 25 26 28 30 31 32 32 32 32 32 33 34 34
88 85 81 79 78 77 75 74 73 70 64 60 57 54 53 52 49 46 44 43 46 47 44 42 41 39 38 39 41 40 38 36 36 36 36 36 35 34 33 32 31 30 29 28 26 25 25 26 26 27 26 26 27 28 30 31 32 32 32 32 32 33 35
92 90 86 82 81 80 78 77 76 73 69 65 59 55 54 57 57 54 50 48 49 48 46 45 45 44 43 41 39 39 39 38 37 37 38 37 37 37 36 35 33 32 31 30 29 27 26 26 27 28 28 27 27 28 30 31 32 32 33 33 33 33 35
95 94 90 86 84 83 81 80 78 73 71 71 67 61 58 59 61 59 55 52 51 50 48 48 50 49 47 44 40 39 40 40 39 39 39 39 39 38 37 37 35 33 32 31 30 29 27 27 28 28 28 29 29 29 30 31 32 33 34 34 34 34 35
98 97 94 90 87 85 84 83 81 77 75 74 71 68 65 63 62 61 58 55 53 51 51 51 52 52 51 49 44 40 39 40 40 40 40 40 40 39 38 37 36 35 33 32 31 31 30 29 29 29 29 29 29 29 30 31 32 33 34 35 35 36 36
101 100 98 94 90 89 87 86 84 82 80 77 73 71 69 68 66 63 60 58 55 54 55 55 54 55 55 53 49 44 41 40 41 41 42 42 41 40 39 38 37 35 34 34 33 32 32 31 30 30 30 30 30 30 30 31 32 33 34 35 35 36 37
104 103 101 97 94 92 90 88 87 85 83 80 77 75 72 70 68 65 63 61 59 58 58 59 60 60 57 55 53 50 48 46 44 43 43 43 43 41 39 38 38 37 36 36 35 34 34 33 33 32 32 31 31 31 31 32 32 33 34 35 36 36 38
105 104 103 100 98 95 92 90 89 89 87 84 81 79 77 73 70 68 66 65 63 62 62 62 63 61 58 56 55 54 53 51 48 45 45 45 44 42 41 40 39 38 38 38 37 36 36 35 34 33 33 33 33 33 32 33 33 34 34 35 36 37 38
105 105 105 104 102 99 95 92 90 91 90 87 84 82 80 77 73 71 70 68 66 67 67 65 63 60 58 57 56 55 55 53 49 46 46 46 45 44 42 41 40 40 40 40 39 39 38 37 36 35 35 35 35 35 34 34 35 35 35 35 36 37 39
107 106 107 106 104 102 99 95 93 92 92 90 87 85 83 80 77 75 72 71 70 71 71 69 66 62 61 60 58 55 53 52 50 47 46 46 46 45 43 42 41 41 41 41 41 41 40 39 38 37 37 37 37 37 37 37 37 37 37 36 37 38 39
108 108 108 108 106 103 101 98 95 93 92 91 89 88 85 82 80 77 75 74 74 74 72 71 68 66 64 63 61 58 54 52 51 49 47 46 46 46 44 43 43 43 43 43 43 42 41 40 40 39 39 39 39 40 40 39 39 39 38 37 37 38 39
108 108 108 109 108 105 103 101 98 95 93 91 90 89 87 84 81 80 78 78 77 76 74 72 70 68 67 65 64 61 57 54 53 51 49 48 47 47 46 45 45 46 46 45 43 42 42 41 41 42 41 41 41 42 42 42 41 40 39 38 38 39 39
110 110 111 111 110 108 105 103 101 98 95 92 89 89 88 85 82 81 81 81 80 77 75 73 71 71 69 67 65 62 58 55 53 52 51 50 49 49 48 47 47 47 46 45 44 44 44 43 43 43 44 44 44 44 44 43 42 40 39 39 40 40 40
114 115 115 114 111 109 106 104 103 101 99 95 90 88 87 85 83 83 83 84 82 79 77 75 73 73 71 67 64 62 58 55 54 53 52 51 51 51 50 49 48 48 47 46 46 46 46 46 45 45 46 46 46 45 44 43 43 42 41 40 41 41 41
119 119 117 113 110 109 107 105 104 102 101 99 95 90 86 85 84 83 84 85 84 82 79 77 75 74 72 68 65 62 60 57 56 55 54 53 52 53 52 51 50 49 48 47 47 48 49 48 48 48 48 48 47 46 44 43 43 43 42 41 41 41 42
123 121 118 112 109 108 107 106 104 102 101 101 99 95 90 87 85 84 85 85 85 83 81 79 77 75 73 71 67 63 62 61 60 58 56 54 54 54 54 53 51 51 50 49 49 50 51 51 51 51 51 50 48 46 45 44 44 44 43 41 41 42 42
124 123 119 114 110 109 108 107 105 103 101 100 100 97 93 89 87 86 86 86 85 84 82 80 78 76 74 72 69 66 63 63 62 60 58 55 54 53 52 52 51 51 51 51 52 53 53 54 54 55 53 51 49 47 46 45 44 43 43 42 41 41 42
125 124 121 116 112 110 110 108 106 104 103 101 99 97 94 90 86 85 86 86 85 84 83 82 80 77 75 73 70 68 66 64 63 59 55 51 50 49 50 52 54 55 55 55 56 56 56 57 58 57 55 53 50 48 47 46 44 43 44 43 42 41 41
124 123 121 117 114 113 112 111 108 106 104 102 99 98 96 93 88 85 83 84 84 84 84 83 81 78 75 73 70 68 66 63 58 53 48 47 46 48 52 55 57 59 60 60 60 59 59 60 60 59 56 54 52 50 48 47 45 44 44 44 42 40 40
Wind_Direction
213 211 213 217 219 217 214 213 210 209 209 211 211 209 208 205 201 197 194 193 194 196 198 200 201 203 203 202 201 199 198 196 195 197 196 195 195 194 194 195 193 190 186 183 189 205 220 238 260 276 291 300 311 320 329 340 348 357 5 12 15 18 23
213 212 213 216 217 216 214 213 210 210 211 210 209 206 205 203 198 196 195 194 195 197 199 202 203 206 209 208 206 203 200 199 199 201 202 200 200 201 202 202 201 198 196 196 201 216 229 238 251 266 279 289 299 308 316 326 334 341 349 356 2 7 11
213 213 213 214 215 214 213 212 211 211 211 211 209 205 203 202 198 195 195 196 197 198 200 203 204 206 210 213 212 209 206 204 204 204 205 205 205 207 209 209 209 208 207 208 215 226 235 242 250 261 272 282 292 300 306 313 320 325 330 334 341 349 354
214 214 213 214 213 212 211 210 209 210 211 210 208 206 203 202 199 194 193 196 199 200 201 205 207 208 211 214 215 214 213 212 212 211 210 210 210 211 213 214 215 216 217 219 224 231 239 246 252 259 268 278 286 291 295 301 307 312 315 316 319 321 328
216 215 214 214 212 210 209 209 209 209 210 209 207 205 204 201 198 194 192 195 198 200 202 205 209 212 214 216 217 217 218 218 218 218 217 217 217 217 217 217 219 221 224 227 230 234 241 248 253 259 265 272 277 282 286 291 295 299 302 305 306 306 307
216 216 215 214 212 209 209 209 210 210 210 209 207 206 206 203 200 195 192 196 200 201 202 204 208 214 218 219 219 218 218 219 220 220 221 221 221 222 222 222 224 225 227 230 233 236 241 247 252 257 263 268 272 275 280 284 287 290 293 296 298 299 298
215 215 215 214 212 210 210 210 210 210 210 210 209 209 209 206 204 201 195 195 199 203 206 207 208 212 219 224 225 222 219 219 220 220 221 222 223 225 227 229 230 231 232 233 235 237 242 246 251 255 259 265 268 271 275 279 283 286 288 290 293 295 295
215 212 212 212 210 210 211 210 210 210 210 210 211 212 211 208 207 206 201 197 200 205 210 212 210 210 215 223 228 230 227 225 224 223 223 223 224 225 227 230 233 235 236 237 238 239 243 247 251 254 258 263 266 268 272 276 280 283 285 287 289 291 292
214 210 210 209 207 209 211 211 210 211 211 211 212 213 212 209 209 209 207 204 202 206 211 214 213 207 210 218 226 231 232 231 231 230 229 228 227 227 228 230 232 234 237 238 239 241 244 248 252 255 259 262 265 267 270 273 277 280 283 285 287 288 289
215 209 210 210 206 208 212 212 211 211 213 212 213 213 211 210 209 210 212 211 207 208 213 217 218 213 207 211 221 229 233 235 236 237 237 236 234 232 232 232 233 235 237 239 240 242 245 249 253 256 259 262 265 266 268 270 273 277 280 283 285 287 289
215 212 214 213 208 208 213 213 212 213 213 214 213 213 212 211 210 211 215 215 213 213 217 220 224 225 217 209 212 223 231 235 239 242 244 244 242 239 237 236 237 239 240 241 242 244 246 250 253 256 258 261 263 264 266 268 271 274 278 281 284 286 288
211 213 215 214 209 210 214 214 213 214 214 214 214 214 214 213 212 213 215 215 216 218 219 221 225 230 230 221 215 219 227 233 238 243 247 249 247 245 242 241 241 242 244 245 245 246 248 251 254 256 258 260 262 263 265 267 270 273 277 280 283 285 287
207 209 213 214 212 212 214 213 213 215 215 213 214 216 216 216 214 214 215 214 216 220 221 222 226 230 234 232 224 221 225 231 236 242 248 251 250 248 246 245 245 245 246 247 248 249 251 254 256 258 260 261 262 263 265 266 269 272 275 279 281 283 284
205 206 209 213 214 213 213 214 214 217 216 213 215 218 218 217 217 216 216 216 217 221 222 223 226 229 234 238 234 227 226 230 235 240 246 251 252 249 247 246 247 248 249 249 250 250 252 255 258 259 259 261 262 263 264 266 268 270 273 276 278 280 280
205 204 205 209 213 213 213 213 214 217 219 216 217 221 220 219 219 217 217 219 220 222 225 227 229 231 236 241 242 237 231 230 233 237 241 247 251 251 249 248 247 249 251 252 253 252 253 254 256 257 257 258 260 262 263 265 268 269 271 273 275 277 279
206 204 203 204 209 213 213 211 210 213 220 221 219 221 222 222 222 222 221 224 227 229 232 234 234 235 240 245 248 246 241 235 233 235 238 243 247 250 252 251 249 249 251 253 256 256 255 254 255 257 257 258 259 260 262 265 267 269 271 272 274 276 278
208 205 202 202 206 211 212 210 209 211 218 224 222 219 219 220 221 220 220 223 228 234 243 245 242 239 241 245 249 252 251 246 239 237 239 241 244 247 250 252 252 250 250 253 255 257 258 258 258 259 261 262 262 264 265 267 269 271 273 274 275 277 278
210 206 202 200 204 209 209 207 208 210 217 226 225 221 219 219 218 216 214 215 217 220 229 241 247 247 246 245 246 249 252 252 249 244 242 242 244 246 248 251 252 252 251 251 254 258 260 261 262 263 265 266 268 270 272 273 274 275 276 277 277 279 279
211 207 202 199 201 206 207 204 203 203 209 219 223 223 222 219 218 216 214 215 216 214 216 226 235 242 246 246 245 244 244 248 251 250 248 246 246 246 247 248 251 252 252 252 253 257 260 262 264 265 266 269 272 274 277 279 279 279 279 280 280 280 281
213 210 205 200 200 205 207 205 203 201 200 206 213 218 221 219 217 216 215 217 220 219 218 220 223 228 234 238 239 238 237 240 245 249 250 250 248 247 247 248 250 252 254 254 253 254 258 262 265 267 267 269 272 275 277 279 280 281 281 281 281 282 283
213 212 209 203 201 204 207 207 207 206 204 205 208 213 219 220 218 216 214 215 219 221 222 221 221 220 222 226 230 230 230 234 240 244 248 250 250 250 249 250 250 252 255 256 256 255 256 260 263 266 267 268 269 271 274 277 280 281 281 281 281 281 282
214 214 211 206 203 205 207 209 209 209 208 208 207 208 214 219 218 217 215 214 216 220 222 220 220 220 220 222 226 227 227 230 235 240 244 247 249 250 251 252 253 253 255 258 260 260 260 261 264 268 271 272 272 272 274 277 280 282 284 283 281 280 280
215 215 213 209 206 206 208 210 211 210 209 209 207 206 210 215 217 217 217 216 216 220 223 221 220 222 224 225 228 232 231 231 234 239 242 245 247 249 251 253 255 256 257 259 262 265 265 266 268 271 274 276 278 279 280 282 284 286 288 288 287 284 282
216 216 215 211 208 208 208 210 211 211 211 211 210 209 212 215 216 216 217 218 219 221 223 222 222 225 226 226 229 233 235 235 238 241 243 245 247 249 251 254 256 258 260 260 262 265 267 268 270 273 275 278 281 284 286 287 288 289 291 291 291 289 286
215 216 216 214 211 210 210 211 212 213 213 214 213 212 213 216 216 215 217 219 221 222 223 225 225 225 227 229 231 233 235 238 241 244 246 247 249 250 252 255 257 259 261 261 261 263 266 268 270 273 276 279 282 285 287 288 289 291 292 293 293 290 288
215 216 217 216 213 212 212 212 212 213 214 215 214 214 215 215 215 215 217 219 220 221 223 226 227 226 228 231 234 236 237 238 242 246 248 250 251 252 254 256 258 259 260 261 262 263 265 267 270 273 276 279 282 284 286 287 289 290 292 293 294 292 289
215 216 216 217 216 214 213 213 214 214 215 215 215 216 217 217 216 216 217 219 221 221 223 225 227 228 230 233 237 239 239 239 241 246 249 252 253 254 255 257 258 260 261 263 263 264 265 268 270 273 276 278 281 283 285 286 288 290 292 293 295 295 292
214 216 216 217 216 215 214 214 215 216 216 216 215 216 218 219 218 217 218 219 221 223 225 226 227 230 233 236 239 241 241 240 241 245 248 251 253 255 256 258 260 261 262 264 265 266 267 269 272 274 276 278 280 282 284 286 287 289 292 295 297 298 295
213 215 217 217 216 216 215 214 214 217 218 217 216 216 217 219 220 220 220 220 222 224 226 227 229 232 235 237 239 240 240 241 243 245 247 249 252 255 257 258 260 261 262 264 265 267 269 271 273 276 277 279 280 282 283 284 286 289 293 297 300 301 299
212 213 216 218 217 216 216 214 214 217 219 218 218 218 218 218 220 221 222 222 224 225 226 227 229 231 234 236 238 240 242 243 245 246 246 247 252 255 256 257 259 260 262 264 266 268 270 272 275 276 278 279 281 282 284 285 287 290 294 298 300 301 300
213 213 215 218 218 217 216 215 214 216 218 219 219 219 219 218 219 221 222 224 225 226 227 228 229 231 233 235 238 241 243 244 244 244 245 249 252 252 254 257 258 259 262 267 269 271 271 272 274 277 278 279 280 282 284 286 288 291 295 297 299 300 301
214 213 214 216 217 217 217 216 215 215 217 219 219 219 219 219 219 220 223 224 225 226 228 229 230 231 233 235 237 240 241 242 242 243 246 249 249 250 254 257 257 259 264 269 271 271 271 272 274 276 277 278 280 282 284 287 289 292 294 295 297 300 303
214 215 214 215 216 217 217 217 216 215 215 218 219 218 218 219 219 220 223 225 226 227 227 228 229 232 233 235 236 238 238 239 240 242 246 248 249 252 256 257 257 261 265 268 269 270 270 272 273 274 275 277 279 281 284 286 288 289 291 293 296 299 302
214 215 215 215 215 216 216 217 217 216 215 217 218 218 218 218 219 220 222 224 226 227 227 228 229 231 233 234 235 237 238 240 242 244 246 247 250 254 257 257 258 261 264 265 266 268 269 270 271 272 273 275 278 280 282 284 285 287 289 292 295 297 299
213 215 215 215 216 217 217 217 218 217 216 216 218 219 219 219 219 220 222 224 226 227 228 229 230 231 233 234 235 236 239 242 244 245 247 249 251 254 256 257 259 261 263 264 265 266 267 268 269 269 271 272 274 276 278 279 281 284 287 289 291 294 298
213 214 214 214 215 217 218 219 219 219 217 217 218 219 220 220 220 221 223 224 226 227 228 229 230 231 233 235 236 237 239 242 244 246 248 249 251 253 255 259 262 264 265 265 265 264 265 265 265 266 267 269 270 272 274 276 278 281 283 285 288 292 296
214 214 214 213 214 216 219 219 220 220 220 219 218 218 219 220 219 219 221 224 226 227 228 229 230 231 233 234 235 236 237 240 243 246 249 251 253 256 261 267 269 269 267 265 263 263 263 263 263 264 265 266 268 270 272 274 276 278 280 282 286 290 294
214 214 214 213 213 215 218 219 219 220 221 220 219 219 219 220 219 219 221 224 225 227 228 229 230 231 232 234 235 236 237 239 243 249 256 261 265 269 272 273 271 269 267 264 262 262 262 261 262 263 265 266 268 269 271 273 275 276 279 281 285 289 293
Height
10965 10967 10969 10972 10975 10978 10981 10983 10986 10988 10989 10992 10994 10996 10997 10999 11000 11001 11003 11004 11005 11007 11009 11011 11014 11015 11017 11018 11020 11022 11023 11025 11026 11028 11029 11030 11032 11033 11034 11035 11036 11038 11039 11040 11040 11041 11041 11042 11043 11043 11043 11044 11044 11044 11044 11043 11043 11043 11042 11042 11041 11041 11041
10960 10962 10965 10968 10972 10975 10978 10981 10984 10986 10988 10990 10992 10994 10996 10998 10999 11001 11002 11004 11004 11006 11008 11010 11013 11015 11017 11019 11020 11021 11023 11024 11025 11027 11028 11029 11030 11032 11033 11034 11035 11036 11038 11039 11039 11040 11040 11041 11042 11042 11043 11043 11043 11043 11043 11043 11043 11043 11042 11042 11041 11041 11041
10956 10958 10961 10965 10969 10972 10976 10978 10981 10983 10986 10988 10990 10992 10995 10997 10998 10999 11001 11003 11004 11005 11007 11009 11012 11014 11017 11018 11020 11021 11023 11023 11024 11025 11027 11028 11029 11031 11032 11033 11034 11035 11036 11037 11038 11039 11039 11040 11041 11041 11042 11042 11043 11043 11043 11043 11043 11043 11042 11042 11042 11041 11041
10951 10954 10958 10962 10966 10969 10972 10975 10977 10980 10983 10986 10989 10991 10994 10995 10996 10997 10999 11001 11002 11003 11005 11008 11011 11013 11015 11017 11019 11021 11022 11023 11024 11025 11026 11027 11028 11029 11030 11031 11032 11034 11035 11036 11037 11038 11038 11039 11040 11040 11041 11041 11042 11042 11042 11042 11042 11042 11042 11042 11042 11041 11041
10946 10950 10955 10959 10963 10966 10969 10971 10974 10978 10981 10984 10987 10989 10991 10992 10994 10995 10997 10999 11000 11002 11004 11006 11009 11012 11014 11016 11018 11020 11022 11023 11023 11024 11025 11026 11027 11027 11029 11030 11031 11032 11033 11035 11036 11036 11037 11038 11038 11039 11039 11040 11040 11040 11041 11041 11041 11042 11041 11041 11041 11041 11041
10942 10947 10951 10955 10959 10963 10965 10968 10971 10975 10979 10981 10984 10987 10989 10990 10992 10994 10995 10997 10999 11000 11002 11004 11007 11010 11013 11015 11017 11019 11020 11021 11022 11022 11023 11024 11025 11026 11027 11028 11029 11031 11032 11033 11034 11035 11036 11036 11037 11038 11038 11039 11039 11039 11039 11040 11040 11041 11041 11041 11040 11040 11040
10938 10943 10947 10951 10956 10959 10962 10966 10969 10972 10976 10979 10982 10985 10986 10989 10992 10993 10994 10996 10998 10999 11000 11002 11004 11007 11010 11014 11017 11019 11020 11020 11020 11021 11022 11022 11023 11024 11026 11027 11027 11029 11030 11031 11032 11033 11034 11035 11035 11036 11037 11037 11038 11038 11038 11038 11039 11039 11040 11040 11039 11039 11039
10932 10938 10942 10947 10952 10956 10959 10963 10966 10970 10973 10976 10979 10982 10985 10988 10990 10991 10993 10995 10997 10998 11000 11001 11003 11005 11008 11011 11015 11018 11020 11020 11020 11020 11020 11021 11022 11023 11024 11025 11026 11027 11028 11029 11030 11032 11032 11033 11034 11035 11035 11036 11036 11037 11037 11037 11037 11038 11038 11038 11038 11038 11038
10927 10934 10938 10943 10950 10953 10956 10960 10964 10967 10970 10974 10977 10980 10984 10986 10987 10989 10991 10992 10994 10997 10999 11001 11002 11003 11005 11008 11012 11017 11019 11021 11020 11019 11019 11020 11020 11021 11022 11022 11023 11024 11026 11027 11028 11030 11031 11031 11032 11033 11034 11034 11035 11035 11035 11035 11035 11036 11036 11037 11037 11037 11037
10926 10932 10935 10941 10947 10951 10954 10957 10961 10965 10968 10971 10974 10978 10981 10983 10984 10987 10989 10990 10992 10995 10998 11001 11002 11002 11003 11005 11009 11014 11017 11020 11020 11019 11019 11019 11019 11020 11020 11021 11022 11023 11024 11025 11026 11028 11029 11029 11030 11031 11032 11033 11033 11034 11034 11034 11034 11034 11035 11035 11036 11036 11036
10930 10933 10935 10939 10945 10949 10951 10955 10958 10962 10965 10968 10971 10975 10978 10980 10982 10984 10987 10989 10992 10995 10997 10999 11002 11003 11003 11004 11006 11010 11014 11017 11019 11019 11018 11018 11019 11019 11019 11020 11020 11021 11022 11023 11025 11026 11027 11027 11028 11029 11030 11031 11032 11032 11032 11032 11032 11032 11033 11034 11034 11034 11034
10926 10930 10932 10936 10941 10945 10948 10951 10955 10958 10962 10965 10968 10972 10975 10977 10979 10982 10984 10988 10991 10993 10995 10997 11000 11003 11003 11004 11004 11007 11011 11015 11017 11017 11017 11017 11018 11018 11018 11019 11019 11020 11021 11022 11023 11024 11025 11025 11026 11028 11029 11029 11030 11030 11030 11030 11030 11031 11031 11032 11033 11033 11032
10920 10925 10927 10931 10936 10939 10943 10946 10951 10954 10958 10962 10965 10968 10971 10974 10976 10979 10982 10986 10988 10991 10993 10996 10998 11001 11002 11003 11004 11005 11008 11011 11014 11015 11016 11016 11017 11017 11017 11017 11018 11018 11019 11020 11022 11022 11023 11024 11025 11026 11027 11028 11028 11028 11028 11028 11029 11029 11030 11030 11031 11031 11031
10918 10922 10923 10925 10929 10934 10938 10943 10948 10952 10956 10960 10963 10965 10968 10971 10974 10977 10980 10983 10986 10988 10991 10993 10996 10998 11000 11002 11004 11005 11006 11009 11011 11013 11014 11014 11015 11015 11015 11016 11016 11017 11017 11018 11019 11020 11022 11022 11023 11025 11026 11026 11026 11026 11026 11026 11027 11028 11028 11029 11029 11029 11029
10911 10914 10916 10919 10924 10930 10935 10940 10946 10951 10955 10958 10961 10963 10967 10970 10972 10975 10978 10981 10983 10985 10988 10991 10994 10996 10998 11000 11002 11004 11005 11006 11009 11010 11011 11012 11012 11013 11013 11014 11014 11015 11016 11016 11017 11018 11020 11021 11021 11022 11023 11024 11024 11024 11024 11024 11025 11026 11027 11027 11027 11027 11026
10902 10906 10910 10915 10920 10924 10929 10936 10945 10950 10953 10956 10959 10962 10966 10970 10973 10975 10978 10980 10981 10983 10985 10988 10991 10993 10994 10997 11000 11002 11003 11004 11006 11008 11009 11009 11010 11010 11011 11012 11013 11013 11014 11014 11015 11016 11018 11019 11019 11020 11021 11022 11022 11022 11022 11022 11023 11024 11025 11025 11025 11025 11024
10891 10898 10905 10911 10915 10917 10925 10935 10941 10947 10952 10954 10956 10960 10964 10967 10969 10971 10974 10976 10978 10981 10984 10986 10987 10988 10990 10992 10995 10997 10999 11001 11003 11005 11006 11007 11007 11008 11008 11009 11010 11011 11012 11012 11013 11014 11015 11017 11018 11018 11019 11019 11020 11020 11020 11021 11021 11021 11022 11023 11023 11023 11023
10879 10889 10898 10906 10910 10913 10921 10930 10933 10940 10950 10955 10957 10961 10963 10963 10965 10966 10967 10969 10969 10972 10978 10983 10985 10985 10985 10985 10987 10990 10993 10996 10999 11001 11003 11004 11005 11005 11006 11006 11007 11008 11009 11010 11011 11012 11013 11014 11015 11017 11017 11018 11018 11018 11018 11019 11020 11020 11020 11021 11021 11020 11020
10872 10882 10891 10899 10905 10908 10915 10922 10926 10932 10944 10954 10959 10962 10962 10960 10961 10961 10963 10966 10965 10964 10967 10973 10978 10982 10983 10981 10979 10981 10985 10990 10994 10997 11000 11001 11002 11002 11003 11003 11004 11005 11006 11008 11009 11010 11010 11011 11013 11014 11016 11016 11016 11016 11016 11017 11018 11018 11018 11019 11018 11018 11018
10867 10876 10884 10892 10898 10901 10906 10915 10920 10924 10933 10941 10947 10952 10954 10955 10955 10957 10959 10963 10964 10962 10961 10963 10967 10973 10978 10977 10974 10974 10977 10982 10987 10992 10995 10998 10999 11000 11000 11001 11001 11002 11003 11004 11007 11008 11008 11009 11010 11011 11013 11014 11014 11014 11014 11014 11014 11015 11016 11016 11016 11016 11015
10860 10868 10876 10885 10892 10895 10900 10907 10912 10918 10925 10930 10933 10939 10946 10948 10949 10951 10954 10956 10958 10959 10960 10960 10960 10961 10963 10964 10965 10967 10970 10975 10981 10986 10991 10993 10995 10997 10997 10998 10999 11000 11000 11001 11003 11006 11006 11007 11007 11008 11009 11011 11011 11012 11011 11011 11011 11012 11013 11013 11014 11013 11012
10851 10859 10867 10877 10884 10889 10894 10900 10905 10911 10919 10924 10927 10932 10936 10939 10941 10944 10947 10949 10951 10953 10956 10957 10957 10955 10955 10956 10959 10962 10965 10970 10975 10981 10986 10989 10991 10993 10994 10995 10997 10998 10998 10999 11000 11003 11004 11005 11005 11005 11006 11008 11009 11009 11009 11008 11009 11009 11009 11010 11010 11010 11009
10841 10849 10858 10868 10877 10882 10887 10892 10897 10904 10911 10916 10920 10923 10926 10930 10934 10938 10941 10944 10946 10949 10951 10953 10953 10953 10953 10955 10957 10960 10963 10966 10971 10976 10981 10984 10986 10989 10991 10993 10994 10996 10997 10997 10998 10999 11001 11003 11003 11004 11004 11005 11005 11006 11006 11006 11006 11006 11006 11006 11006 11007 11006
10831 10839 10848 10857 10867 10874 10880 10885 10890 10896 10902 10907 10912 10916 10919 10922 10927 10932 10936 10939 10942 10945 10947 10948 10949 10949 10949 10951 10954 10958 10961 10964 10968 10973 10977 10980 10983 10985 10988 10990 10992 10994 10995 10996 10996 10997 10998 11000 11001 11001 11002 11002 11003 11003 11004 11004 11004 11003 11003 11003 11003 11003 11002
10821 10829 10837 10847 10857 10864 10870 10877 10883 10888 10894 10899 10904 10909 10912 10916 10921 10926 10930 10933 10937 10940 10942 10943 10943 10943 10943 10945 10949 10955 10959 10963 10967 10970 10974 10977 10980 10982 10985 10987 10989 10992 10993 10994 10994 10994 10996 10997 10998 10998 10999 11000 11001 11001 11001 11001 11001 11000 11000 11000 11000 11000 10999
10810 10818 10827 10837 10847 10854 10861 10869 10875 10880 10886 10891 10896 10901 10905 10910 10916 10920 10924 10927 10930 10934 10935 10935 10936 10937 10939 10943 10947 10952 10956 10960 10964 10967 10971 10974 10977 10980 10982 10985 10987 10988 10990 10991 10992 10992 10993 10994 10995 10996 10996 10997 10998 10998 10998 10998 10998 10998 10997 10997 10997 10996 10995
10801 10808 10817 10826 10835 10844 10852 10860 10866 10871 10877 10883 10889 10894 10898 10904 10910 10915 10918 10921 10925 10927 10928 10928 10929 10933 10937 10941 10944 10948 10953 10957 10962 10965 10968 10971 10974 10977 10979 10982 10984 10985 10987 10988 10989 10990 10990 10991 10992 10993 10993 10994 10994 10995 10995 10995 10994 10994 10994 10994 10993 10993 10992
10791 10798 10805 10813 10823 10832 10842 10850 10856 10862 10868 10874 10881 10886 10891 10897 10904 10908 10912 10916 10919 10919 10920 10922 10926 10931 10935 10938 10941 10945 10949 10954 10959 10963 10966 10968 10971 10973 10976 10978 10981 10982 10983 10984 10985 10986 10987 10988 10989 10990 10990 10990 10991 10991 10991 10991 10991 10991 10991 10991 10990 10989 10988
10781 10788 10794 10802 10812 10822 10831 10840 10846 10852 10858 10866 10873 10879 10885 10891 10896 10901 10906 10910 10911 10911 10913 10918 10924 10928 10931 10934 10937 10941 10945 10950 10955 10960 10963 10965 10967 10970 10972 10975 10977 10978 10979 10981 10982 10983 10983 10984 10985 10986 10986 10986 10986 10987 10987 10987 10987 10987 10988 10988 10987 10986 10984
10770 10778 10784 10792 10802 10812 10821 10829 10837 10843 10850 10858 10865 10872 10878 10885 10890 10895 10900 10902 10901 10903 10908 10914 10919 10924 10927 10930 10932 10936 10942 10947 10951 10956 10960 10962 10964 10966 10969 10971 10973 10973 10975 10976 10978 10979 10980 10980 10980 10981 10982 10982 10982 10982 10982 10983 10983 10983 10984 10984 10984 10982 10981
10762 10769 10775 10782 10791 10802 10811 10819 10828 10835 10842 10849 10857 10864 10871 10879 10884 10889 10892 10892 10893 10897 10903 10908 10913 10918 10922 10924 10928 10932 10938 10943 10947 10951 10955 10958 10960 10962 10964 10966 10968 10969 10970 10972 10974 10975 10975 10975 10975 10976 10976 10977 10977 10977 10977 10977 10978 10979 10979 10979 10979 10978 10977
10752 10758 10764 10770 10779 10791 10800 10809 10819 10827 10833 10841 10848 10855 10863 10871 10877 10881 10882 10883 10886 10892 10897 10902 10907 10911 10915 10919 10924 10928 10934 10939 10943 10947 10951 10953 10956 10958 10960 10962 10963 10964 10965 10968 10969 10969 10969 10970 10970 10970 10970 10970 10971 10971 10972 10972 10972 10973 10974 10974 10973 10973 10972
10738 10745 10752 10760 10769 10779 10790 10799 10808 10817 10824 10831 10838 10847 10855 10863 10869 10872 10873 10876 10880 10886 10891 10897 10902 10905 10910 10915 10920 10924 10930 10935 10938 10942 10946 10948 10950 10952 10955 10957 10958 10959 10961 10963 10963 10962 10963 10963 10964 10964 10964 10964 10964 10965 10966 10966 10966 10966 10968 10969 10968 10968 10967
10724 10732 10743 10755 10762 10770 10780 10789 10797 10807 10816 10822 10829 10838 10846 10853 10859 10863 10865 10868 10873 10879 10885 10892 10897 10901 10905 10911 10916 10921 10926 10930 10933 10937 10941 10943 10945 10947 10949 10951 10953 10954 10955 10957 10956 10956 10956 10956 10956 10957 10956 10957 10957 10958 10960 10960 10958 10958 10960 10963 10963 10962 10962
10711 10720 10733 10747 10756 10763 10771 10779 10788 10797 10807 10814 10821 10829 10837 10844 10850 10855 10858 10861 10866 10872 10879 10886 10892 10896 10901 10906 10912 10917 10921 10924 10927 10931 10935 10938 10940 10941 10943 10945 10946 10948 10949 10950 10950 10949 10948 10948 10947 10947 10948 10949 10950 10951 10951 10951 10951 10950 10952 10955 10956 10955 10956
10700 10710 10723 10737 10747 10755 10763 10771 10779 10788 10797 10805 10812 10821 10829 10835 10842 10848 10852 10855 10860 10867 10873 10880 10886 10891 10896 10902 10907 10912 10916 10918 10921 10924 10928 10932 10935 10936 10938 10939 10940 10941 10941 10942 10941 10940 10940 10939 10938 10938 10940 10941 10943 10943 10943 10944 10944 10944 10945 10947 10948 10949 10949
10690 10701 10713 10727 10738 10746 10753 10761 10770 10779 10787 10796 10804 10814 10821 10827 10834 10840 10845 10850 10855 10862 10867 10873 10880 10885 10891 10895 10901 10905 10909 10911 10914 10918 10924 10928 10931 10933 10933 10933 10933 10932 10932 10932 10931 10931 10932 10931 10930 10931 10933 10935 10936 10937 10937 10937 10938 10938 10938 10939 10942 10943 10943
10682 10693 10705 10718 10729 10737 10743 10751 10761 10770 10778 10786 10797 10806 10813 10819 10827 10834 10840 10844 10850 10855 10861 10866 10873 10879 10885 10890 10895 10899 10903 10907 10912 10919 10924 10927 10929 10929 10928 10925 10923 10923 10923 10923 10923 10923 10923 10923 10923 10924 10926 10928 10930 10930 10931 10931 10932 10932 10932 10933 10935 10937 10938